SHT7P EGPF-EGLL

Flight info

Callsign SHT7P
Flight time 0h 54m
Altitude 25000
Route NORBO T256 RIPNO/N0410F330 DCT AKOMU DCT VAMEB DCT NUGRA
Aircraft A319/M-SDE3FGHIRWY/LB1

Departure

Time 2026-05-06 19:47
Airport Glasgow Airport (EGPF)

Arrival

Time 2026-05-06 20:41
Airport London Heathrow Airport (EGLL)
Time Latitude Longitude Altitude Speed Heading
2026-05-06 19:24 55.86623 -4.43112 31 ft 0 kts 73°
2026-05-06 19:37 55.86617 -4.43149 29 ft 4 kts 68°
2026-05-06 19:37 55.86609 -4.43175 29 ft 4 kts 42°
2026-05-06 19:38 55.86585 -4.43189 30 ft 0 kts 344°
2026-05-06 19:41 55.86586 -4.43190 31 ft 1 kts 344°
2026-05-06 19:41 55.86623 -4.43212 31 ft 8 kts 341°
2026-05-06 19:41 55.86688 -4.43250 31 ft 11 kts 342°
2026-05-06 19:42 55.86772 -4.43293 31 ft 13 kts 359°
2026-05-06 19:42 55.86826 -4.43174 30 ft 15 kts 75°
2026-05-06 19:42 55.86855 -4.42998 30 ft 12 kts 66°
2026-05-06 19:42 55.86929 -4.42905 30 ft 15 kts 24°
2026-05-06 19:43 55.87033 -4.42827 30 ft 18 kts 21°
2026-05-06 19:43 55.87160 -4.42744 30 ft 21 kts 21°
2026-05-06 19:43 55.87303 -4.42645 29 ft 22 kts 17°
2026-05-06 19:43 55.87428 -4.42514 29 ft 21 kts 46°
2026-05-06 19:44 55.87536 -4.42318 28 ft 24 kts 45°
2026-05-06 19:44 55.87642 -4.42119 27 ft 21 kts 47°
2026-05-06 19:44 55.87726 -4.41954 27 ft 18 kts 47°
2026-05-06 19:44 55.87819 -4.41852 27 ft 13 kts 13°
2026-05-06 19:45 55.87853 -4.41847 26 ft 0 kts 355°
2026-05-06 19:45 55.87873 -4.41851 30 ft 5 kts 352°
2026-05-06 19:45 55.87919 -4.41916 27 ft 11 kts 292°
2026-05-06 19:46 55.87884 -4.42041 26 ft 14 kts 224°
2026-05-06 19:46 55.87707 -4.42365 28 ft 68 kts 226°
2026-05-06 19:46 55.87232 -4.43257 30 ft 129 kts 227°
2026-05-06 19:46 55.86537 -4.44622 259 ft 162 kts 230°
2026-05-06 19:47 55.85772 -4.46227 797 ft 179 kts 229°
2026-05-06 19:47 55.84901 -4.47917 1484 ft 193 kts 224°
2026-05-06 19:47 55.83881 -4.49694 1988 ft 218 kts 223°
2026-05-06 19:47 55.82727 -4.51652 2755 ft 238 kts 221°
2026-05-06 19:48 55.81513 -4.53716 3892 ft 244 kts 222°
2026-05-06 19:48 55.80293 -4.55807 5023 ft 250 kts 223°
2026-05-06 19:48 55.79444 -4.57276 5791 ft 253 kts 223°
2026-05-06 19:48 55.78172 -4.59490 6889 ft 259 kts 224°
2026-05-06 19:49 55.76892 -4.61728 7941 ft 263 kts 224°
2026-05-06 19:49 55.75562 -4.64057 9042 ft 267 kts 224°
2026-05-06 19:49 55.74229 -4.66392 10099 ft 271 kts 225°
2026-05-06 19:49 55.72830 -4.68843 10621 ft 294 kts 225°
2026-05-06 19:50 55.71334 -4.71440 11306 ft 305 kts 225°
2026-05-06 19:50 55.69785 -4.73965 12173 ft 311 kts 218°
2026-05-06 19:50 55.67790 -4.75571 13019 ft 322 kts 194°
2026-05-06 19:50 55.65529 -4.75884 13898 ft 329 kts 185°
2026-05-06 19:51 55.63224 -4.76015 14678 ft 334 kts 184°
2026-05-06 19:51 55.61371 -4.75747 15271 ft 341 kts 173°
2026-05-06 19:51 55.59427 -4.74793 15906 ft 349 kts 162°
2026-05-06 19:52 55.57586 -4.73165 16542 ft 357 kts 150°
2026-05-06 19:52 55.56968 -4.72422 16765 ft 360 kts 146°
2026-05-06 19:52 55.55005 -4.69628 17516 ft 365 kts 143°
2026-05-06 19:52 55.53037 -4.66794 18284 ft 370 kts 143°
2026-05-06 19:53 55.52551 -4.66097 18443 ft 371 kts 144°
2026-05-06 19:53 55.50529 -4.63205 19074 ft 376 kts 144°
2026-05-06 19:54 55.48484 -4.60289 19699 ft 381 kts 144°
2026-05-06 19:54 55.46410 -4.57338 20332 ft 386 kts 144°
2026-05-06 19:54 55.44324 -4.54378 20957 ft 391 kts 144°
2026-05-06 19:54 55.42192 -4.51357 21545 ft 396 kts 144°
2026-05-06 19:55 55.40034 -4.48297 22150 ft 400 kts 144°
2026-05-06 19:55 55.37853 -4.45202 22750 ft 405 kts 144°
2026-05-06 19:55 55.35648 -4.42071 23359 ft 410 kts 144°
2026-05-06 19:55 55.33413 -4.38903 23887 ft 415 kts 144°
2026-05-06 19:56 55.31152 -4.35712 24403 ft 419 kts 144°
2026-05-06 19:56 55.28867 -4.32491 24856 ft 423 kts 144°
2026-05-06 19:56 55.26572 -4.29259 24993 ft 422 kts 143°
2026-05-06 19:56 55.24318 -4.26087 25018 ft 408 kts 144°
2026-05-06 19:57 55.22140 -4.23023 25017 ft 397 kts 144°
2026-05-06 19:57 55.19936 -4.19941 25020 ft 414 kts 144°
2026-05-06 19:57 55.17677 -4.16699 25015 ft 425 kts 139°
2026-05-06 19:57 55.15609 -4.12968 25023 ft 428 kts 135°
2026-05-06 19:58 55.13558 -4.09175 25020 ft 429 kts 135°
2026-05-06 19:58 55.11504 -4.05383 25022 ft 429 kts 135°
2026-05-06 19:58 55.09449 -4.01593 25024 ft 429 kts 135°
2026-05-06 19:58 55.07389 -3.97804 25024 ft 429 kts 135°
2026-05-06 19:59 55.05331 -3.94029 25023 ft 429 kts 135°
2026-05-06 19:59 55.03295 -3.90304 25023 ft 429 kts 135°
2026-05-06 19:59 55.01232 -3.86537 25024 ft 429 kts 135°
2026-05-06 19:59 54.99168 -3.82774 25023 ft 429 kts 135°
2026-05-06 20:00 54.97104 -3.79015 25028 ft 429 kts 135°
2026-05-06 20:00 54.95029 -3.75285 25016 ft 429 kts 138°
2026-05-06 20:00 54.92686 -3.72104 25013 ft 426 kts 149°
2026-05-06 20:00 54.90161 -3.69413 25018 ft 426 kts 150°
2026-05-06 20:01 54.87635 -3.66729 25016 ft 425 kts 150°
2026-05-06 20:01 54.85107 -3.64040 25021 ft 425 kts 150°
2026-05-06 20:01 54.82588 -3.61365 25022 ft 425 kts 150°
2026-05-06 20:01 54.80062 -3.58691 25021 ft 425 kts 150°
2026-05-06 20:02 54.77538 -3.56017 25018 ft 425 kts 150°
2026-05-06 20:02 54.75017 -3.53345 25024 ft 425 kts 150°
2026-05-06 20:02 54.72500 -3.50680 25018 ft 424 kts 150°
2026-05-06 20:02 54.69981 -3.48019 25007 ft 424 kts 149°
2026-05-06 20:03 54.67458 -3.45363 25010 ft 424 kts 150°
2026-05-06 20:03 54.64943 -3.42719 25019 ft 423 kts 150°
2026-05-06 20:03 54.62424 -3.40076 25021 ft 423 kts 150°
2026-05-06 20:03 54.59912 -3.37441 25033 ft 423 kts 150°
2026-05-06 20:04 54.57398 -3.34804 25023 ft 422 kts 150°
2026-05-06 20:04 54.54917 -3.32211 25026 ft 422 kts 150°
2026-05-06 20:04 54.52405 -3.29591 25023 ft 422 kts 150°
2026-05-06 20:04 54.49895 -3.26974 25015 ft 422 kts 150°
2026-05-06 20:05 54.47384 -3.24361 25013 ft 421 kts 150°
2026-05-06 20:05 54.44877 -3.21756 25007 ft 422 kts 150°
2026-05-06 20:05 54.42370 -3.19154 25036 ft 420 kts 150°
2026-05-06 20:05 54.39868 -3.16563 25045 ft 419 kts 150°
2026-05-06 20:06 54.37371 -3.13986 25048 ft 419 kts 150°
2026-05-06 20:06 54.34880 -3.11412 25045 ft 418 kts 150°
2026-05-06 20:06 54.32388 -3.08838 25040 ft 417 kts 150°
2026-05-06 20:06 54.29901 -3.06273 25024 ft 417 kts 150°
2026-05-06 20:07 54.27419 -3.03719 25026 ft 417 kts 150°
2026-05-06 20:07 54.24937 -3.01170 25032 ft 416 kts 150°
2026-05-06 20:07 54.22427 -2.98600 25032 ft 425 kts 150°
2026-05-06 20:07 54.19899 -2.96015 25020 ft 422 kts 150°
2026-05-06 20:08 54.17348 -2.93440 25030 ft 427 kts 153°
2026-05-06 20:08 54.14646 -2.91351 25036 ft 427 kts 158°
2026-05-06 20:08 54.11917 -2.89359 25023 ft 427 kts 158°
2026-05-06 20:08 54.09179 -2.87365 25031 ft 428 kts 158°
2026-05-06 20:09 54.06443 -2.85378 25022 ft 428 kts 158°
2026-05-06 20:09 54.03700 -2.83388 25033 ft 428 kts 158°
2026-05-06 20:09 54.00961 -2.81402 25016 ft 428 kts 158°
2026-05-06 20:09 53.98152 -2.79760 25031 ft 427 kts 164°
2026-05-06 20:10 53.95318 -2.78257 25010 ft 426 kts 164°
2026-05-06 20:10 53.92485 -2.76754 25005 ft 426 kts 164°
2026-05-06 20:10 53.89651 -2.75255 25018 ft 426 kts 164°
2026-05-06 20:10 53.86823 -2.73760 25012 ft 426 kts 164°
2026-05-06 20:11 53.83994 -2.72266 25004 ft 426 kts 164°
2026-05-06 20:11 53.81165 -2.70776 25008 ft 426 kts 164°
2026-05-06 20:11 53.78368 -2.69307 25014 ft 426 kts 164°
2026-05-06 20:11 53.75534 -2.67818 25021 ft 426 kts 164°
2026-05-06 20:12 53.72706 -2.66330 25018 ft 426 kts 164°
2026-05-06 20:12 53.69869 -2.64839 25013 ft 425 kts 163°
2026-05-06 20:12 53.67043 -2.63359 25010 ft 425 kts 163°
2026-05-06 20:12 53.64215 -2.61883 25018 ft 425 kts 163°
2026-05-06 20:13 53.61387 -2.60413 25019 ft 425 kts 164°
2026-05-06 20:13 53.58562 -2.58946 25023 ft 425 kts 164°
2026-05-06 20:13 53.55745 -2.57479 25023 ft 425 kts 164°
2026-05-06 20:13 53.52918 -2.56007 25020 ft 425 kts 164°
2026-05-06 20:14 53.50125 -2.54558 25021 ft 424 kts 164°
2026-05-06 20:14 53.47304 -2.53098 25017 ft 424 kts 164°
2026-05-06 20:14 53.44483 -2.51636 25017 ft 424 kts 164°
2026-05-06 20:14 53.41661 -2.50171 25034 ft 424 kts 164°
2026-05-06 20:15 53.38848 -2.48714 25046 ft 424 kts 164°
2026-05-06 20:15 53.36015 -2.47253 25039 ft 424 kts 164°
2026-05-06 20:15 53.33196 -2.45801 25048 ft 424 kts 164°
2026-05-06 20:15 53.30375 -2.44349 25041 ft 424 kts 164°
2026-05-06 20:16 53.27505 -2.42877 25046 ft 424 kts 164°
2026-05-06 20:16 53.24726 -2.41459 25032 ft 424 kts 164°
2026-05-06 20:16 53.21906 -2.40022 25038 ft 424 kts 164°
2026-05-06 20:17 53.17254 -2.37651 25037 ft 424 kts 164°
2026-05-06 20:17 53.14432 -2.36214 25036 ft 424 kts 164°
2026-05-06 20:17 53.11609 -2.34777 25034 ft 424 kts 164°
2026-05-06 20:17 53.08788 -2.33342 25031 ft 424 kts 164°
2026-05-06 20:18 53.05970 -2.31908 25029 ft 424 kts 164°
2026-05-06 20:18 53.03174 -2.30309 25010 ft 425 kts 156°
2026-05-06 20:18 53.00600 -2.27901 25024 ft 425 kts 148°
2026-05-06 20:18 52.98103 -2.25264 25018 ft 425 kts 148°
2026-05-06 20:19 52.95639 -2.22673 25026 ft 425 kts 148°
2026-05-06 20:19 52.93140 -2.20055 25029 ft 425 kts 148°
2026-05-06 20:19 52.90637 -2.17444 25030 ft 425 kts 148°
2026-05-06 20:19 52.88134 -2.14840 25031 ft 424 kts 148°
2026-05-06 20:20 52.85631 -2.12237 25031 ft 425 kts 148°
2026-05-06 20:20 52.83127 -2.09630 25031 ft 425 kts 148°
2026-05-06 20:20 52.80631 -2.07027 25032 ft 425 kts 148°
2026-05-06 20:20 52.78130 -2.04423 25032 ft 425 kts 148°
2026-05-06 20:21 52.75628 -2.01823 25031 ft 424 kts 148°
2026-05-06 20:21 52.73128 -1.99228 25029 ft 424 kts 149°
2026-05-06 20:21 52.70628 -1.96633 25031 ft 424 kts 149°
2026-05-06 20:21 52.68160 -1.94078 25032 ft 424 kts 149°
2026-05-06 20:22 52.65624 -1.91461 25035 ft 424 kts 149°
2026-05-06 20:22 52.63145 -1.88907 25034 ft 425 kts 149°
2026-05-06 20:22 52.60642 -1.86329 25045 ft 425 kts 149°
2026-05-06 20:22 52.58137 -1.83753 25048 ft 425 kts 149°
2026-05-06 20:23 52.55634 -1.81178 24823 ft 422 kts 149°
2026-05-06 20:23 52.53185 -1.78662 24688 ft 408 kts 149°
2026-05-06 20:23 52.50814 -1.76230 24519 ft 396 kts 149°
2026-05-06 20:23 52.48498 -1.73867 24276 ft 388 kts 149°
2026-05-06 20:24 52.46232 -1.71558 24038 ft 379 kts 149°
2026-05-06 20:24 52.44024 -1.69305 23799 ft 367 kts 149°
2026-05-06 20:24 52.41877 -1.67115 23549 ft 363 kts 149°
2026-05-06 20:24 52.39734 -1.64934 23262 ft 361 kts 149°
2026-05-06 20:25 52.37605 -1.62771 22988 ft 359 kts 149°
2026-05-06 20:25 52.35514 -1.60650 22714 ft 358 kts 149°
2026-05-06 20:25 52.33424 -1.58530 22410 ft 350 kts 149°
2026-05-06 20:25 52.31285 -1.56370 22001 ft 375 kts 149°
2026-05-06 20:26 52.29027 -1.54093 21530 ft 385 kts 149°
2026-05-06 20:26 52.26743 -1.51791 21065 ft 386 kts 149°
2026-05-06 20:26 52.24460 -1.49485 20611 ft 389 kts 149°
2026-05-06 20:26 52.22156 -1.47138 20145 ft 392 kts 147°
2026-05-06 20:27 52.20030 -1.44357 19727 ft 391 kts 140°
2026-05-06 20:27 52.17974 -1.41455 19338 ft 390 kts 140°
2026-05-06 20:27 52.15917 -1.38576 18941 ft 388 kts 140°
2026-05-06 20:27 52.13883 -1.35742 18430 ft 383 kts 140°
2026-05-06 20:28 52.11867 -1.32938 17795 ft 379 kts 140°
2026-05-06 20:28 52.09866 -1.30162 17142 ft 376 kts 140°
2026-05-06 20:28 52.07884 -1.27417 16508 ft 373 kts 140°
2026-05-06 20:28 52.05918 -1.24695 15879 ft 370 kts 140°
2026-05-06 20:29 52.03964 -1.21990 15258 ft 367 kts 140°
2026-05-06 20:29 52.02029 -1.19313 14655 ft 364 kts 140°
2026-05-06 20:29 52.00112 -1.16662 14063 ft 361 kts 140°
2026-05-06 20:29 51.98208 -1.14029 13430 ft 358 kts 140°
2026-05-06 20:30 51.96367 -1.11489 13221 ft 342 kts 140°
2026-05-06 20:30 51.92877 -1.06679 12727 ft 321 kts 140°
2026-05-06 20:30 51.91177 -1.04340 12306 ft 319 kts 140°
2026-05-06 20:31 51.89494 -1.02026 11877 ft 317 kts 140°
2026-05-06 20:31 51.87820 -0.99725 11454 ft 314 kts 140°
2026-05-06 20:31 51.86166 -0.97424 11034 ft 312 kts 136°
2026-05-06 20:31 51.84769 -0.94744 10607 ft 311 kts 128°
2026-05-06 20:32 51.83152 -0.92460 10175 ft 310 kts 152°
2026-05-06 20:32 51.81143 -0.91272 9756 ft 307 kts 165°
2026-05-06 20:32 51.79088 -0.90365 9311 ft 305 kts 166°
2026-05-06 20:32 51.77047 -0.89501 8924 ft 301 kts 166°
2026-05-06 20:33 51.75022 -0.88652 8503 ft 300 kts 166°
2026-05-06 20:33 51.73022 -0.87813 8258 ft 292 kts 166°
2026-05-06 20:33 51.71115 -0.87020 8115 ft 273 kts 166°
2026-05-06 20:33 51.69334 -0.86278 7968 ft 257 kts 166°
2026-05-06 20:34 51.67632 -0.85576 7610 ft 249 kts 166°
2026-05-06 20:34 51.65961 -0.84892 7130 ft 248 kts 166°
2026-05-06 20:34 51.64297 -0.84215 6793 ft 245 kts 166°
2026-05-06 20:34 51.62647 -0.83550 6421 ft 244 kts 166°
2026-05-06 20:35 51.61023 -0.82898 6038 ft 242 kts 166°
2026-05-06 20:35 51.59391 -0.82246 5631 ft 241 kts 166°
2026-05-06 20:35 51.57770 -0.81600 5253 ft 239 kts 166°
2026-05-06 20:35 51.56161 -0.80959 4862 ft 237 kts 166°
2026-05-06 20:36 51.54555 -0.80315 4436 ft 237 kts 166°
2026-05-06 20:36 51.52973 -0.79690 4201 ft 229 kts 166°
2026-05-06 20:36 51.51479 -0.79110 4087 ft 212 kts 166°
2026-05-06 20:36 51.50161 -0.78212 3724 ft 205 kts 139°
2026-05-06 20:37 51.49266 -0.76486 3337 ft 200 kts 122°
2026-05-06 20:37 51.48497 -0.74644 3022 ft 197 kts 121°
2026-05-06 20:37 51.47811 -0.72736 2989 ft 197 kts 108°
2026-05-06 20:37 51.47629 -0.70593 2832 ft 194 kts 87°
2026-05-06 20:38 51.47644 -0.68459 2595 ft 187 kts 86°
2026-05-06 20:38 51.47659 -0.66417 2349 ft 180 kts 86°
2026-05-06 20:38 51.47671 -0.64436 2108 ft 175 kts 86°
2026-05-06 20:38 51.47682 -0.62508 1867 ft 172 kts 86°
2026-05-06 20:39 51.47692 -0.60591 1634 ft 171 kts 86°
2026-05-06 20:39 51.47702 -0.58714 1402 ft 169 kts 86°
2026-05-06 20:39 51.47710 -0.56895 1183 ft 154 kts 86°
2026-05-06 20:39 51.47716 -0.55276 971 ft 136 kts 86°
2026-05-06 20:40 51.47723 -0.53803 786 ft 129 kts 86°
2026-05-06 20:40 51.47730 -0.52382 607 ft 127 kts 87°
2026-05-06 20:40 51.47737 -0.50994 440 ft 125 kts 87°
2026-05-06 20:40 51.47745 -0.49608 255 ft 124 kts 85°
2026-05-06 20:41 51.47747 -0.48234 127 ft 122 kts 87°
2026-05-06 20:41 51.47760 -0.46960 88 ft 104 kts 88°
2026-05-06 20:41 51.47764 -0.46287 87 ft 22 kts 98°
2026-05-06 20:41 51.47687 -0.46123 87 ft 17 kts 144°
2026-05-06 20:42 51.47610 -0.46080 86 ft 13 kts 205°
2026-05-06 20:42 51.47594 -0.46202 86 ft 12 kts 271°
2026-05-06 20:42 51.47593 -0.46354 86 ft 15 kts 269°
2026-05-06 20:42 51.47591 -0.46535 86 ft 18 kts 269°
2026-05-06 20:43 51.47589 -0.46750 86 ft 21 kts 269°
2026-05-06 20:43 51.47581 -0.46991 86 ft 23 kts 270°
2026-05-06 20:43 51.47581 -0.47264 88 ft 26 kts 270°
2026-05-06 20:43 51.47580 -0.47560 86 ft 25 kts 269°
2026-05-06 20:44 51.47578 -0.47861 86 ft 28 kts 269°
2026-05-06 20:44 51.47577 -0.48161 86 ft 22 kts 270°
2026-05-06 20:44 51.47576 -0.48407 86 ft 15 kts 269°
2026-05-06 20:44 51.47575 -0.48577 86 ft 17 kts 271°
2026-05-06 20:45 51.47576 -0.48748 86 ft 17 kts 269°
2026-05-06 20:45 51.47575 -0.48887 86 ft 11 kts 269°
2026-05-06 20:45 51.47525 -0.48953 87 ft 10 kts 179°
2026-05-06 20:45 51.47479 -0.48955 86 ft 5 kts 181°
2026-05-06 20:46 51.47443 -0.48952 86 ft 1 kts 180°
2026-05-06 20:46 51.47432 -0.48953 86 ft 0 kts 182°
2026-05-06 20:46 51.47426 -0.48952 86 ft 0 kts 181°
2026-05-06 20:46 51.47422 -0.48954 86 ft 0 kts 190°
2026-05-06 20:47 51.47418 -0.48955 86 ft 1 kts 186°
2026-05-06 20:47 51.47415 -0.48955 86 ft 0 kts 184°